Hazen, ND

11:29 PM CDT on April 29, 2017 (GMT -0500)
Mercer County Regional

Weather History for KHZE - February, 2013

Change the Weather History Date:

Monday, February 4, 2013

  Actual Average (KN60) Record (KN60)
Temperature  
Mean Temperature 26 °F -  
Max Temperature 37 °F 22 °F 37 °F (2005)
Min Temperature 14 °F 3 °F -20 °F (2004)
Degree Days  
Heating Degree Days 40    
Moisture  
Dew Point 22 °F    
Average Humidity 82    
Maximum Humidity 93    
Minimum Humidity 70    
Precipitation  
Precipitation 0.00 in - - ()
Sea Level Pressure  
Sea Level Pressure 29.74 in    
Wind  
Wind Speed 8 mph (SW)    
Max Wind Speed 20 mph    
Max Gust Speed 24 mph    
Visibility 9 miles    
Events      
Averages and records for this station are not official NWS values.
T = Trace of Precipitation, MM = Missing Value Source: NWS Daily Summary

Daily Weather History Graph

Daily Weather History Graph

Search for Another Location

Airport or City:

Trip Planner

Search our weather history database for the weather conditions in past years. The results will help you decide how hot, cold, wet, or windy it might be!

Date:

Astronomy

Feb. 04, 2013 Rise Set
Actual Time 8:07 AM CST 5:53 PM CST
Civil Twilight 7:35 AM CST 6:26 PM CST
Nautical Twilight 6:58 AM CST 7:02 PM CST
Astronomical Twilight 6:23 AM CST 7:38 PM CST
Moon 2:50 AM CST (2/4) 12:12 PM CST (2/4)
Length of Visible Light 10h 50m
Length of Day
9h 45m
Last Quarter, 37% of the Moon is Illuminated
Feb 4
Last Quarter
Feb 10
New
Feb 17
First Quarter
Feb 25
Full
Mar 4
Last Quarter

Hourly Weather History & Observations

Time (CST) Temp. Windchill Dew Point Humidity Pressure Visibility Wind Dir Wind Speed Gust Speed Precip Events Conditions
12:15 AM 14.0 °F 6.5 °F 8.6 °F 79% 29.95 in 10.0 mi SSE 4.6 mph - N/A   Overcast
12:35 AM 14.0 °F - 8.6 °F 79% 29.96 in 10.0 mi Calm Calm - N/A   Overcast
12:55 AM 14.0 °F - 8.6 °F 79% 29.96 in 10.0 mi Calm Calm - N/A   Overcast
1:15 AM 14.0 °F - 8.6 °F 79% 29.96 in 10.0 mi Calm Calm - N/A   Overcast
1:35 AM 14.0 °F 8.2 °F 8.6 °F 79% 29.96 in 10.0 mi South 3.5 mph - N/A   Overcast
1:55 AM 14.0 °F - 8.6 °F 79% 29.95 in 10.0 mi Calm Calm - N/A   Overcast
2:15 AM 14.0 °F - 10.4 °F 86% 29.95 in 10.0 mi Calm Calm - N/A   Overcast
2:35 AM 15.8 °F 10.2 °F 10.4 °F 79% 29.95 in 10.0 mi South 3.5 mph - N/A   Overcast
2:55 AM 15.8 °F 8.6 °F 10.4 °F 79% 29.95 in 10.0 mi SSW 4.6 mph - N/A   Overcast
3:15 AM 15.8 °F - 10.4 °F 79% 29.95 in 10.0 mi Calm Calm - N/A   Overcast
4:55 AM 15.8 °F 10.2 °F 14.0 °F 93% 29.90 in 10.0 mi SSW 3.5 mph - N/A   Overcast
5:15 AM 17.6 °F 8.2 °F 14.0 °F 86% 29.89 in 10.0 mi SSW 6.9 mph - N/A   Overcast
5:35 AM 15.8 °F 4.2 °F 12.2 °F 86% 29.89 in 10.0 mi South 9.2 mph - N/A   Mostly Cloudy
5:55 AM 15.8 °F 3.4 °F 12.2 °F 86% 29.89 in 10.0 mi SSW 10.4 mph - N/A   Overcast
6:15 AM 17.6 °F 5.0 °F 14.0 °F 86% 29.89 in 8.0 mi SSW 11.5 mph - N/A   Overcast
6:35 AM 17.6 °F 5.0 °F 14.0 °F 86% 29.88 in 7.0 mi South 11.5 mph - N/A   Overcast
6:55 AM 15.8 °F 3.4 °F 14.0 °F 93% 29.86 in 5.0 mi South 10.4 mph - N/A   Mostly Cloudy
7:15 AM 17.6 °F 5.0 °F 15.8 °F 93% 29.86 in 6.0 mi South 11.5 mph - N/A   Partly Cloudy
7:35 AM 17.6 °F 6.4 °F 14.0 °F 86% 29.86 in 7.0 mi South 9.2 mph - N/A   Mostly Cloudy
7:55 AM 17.6 °F 7.3 °F 15.8 °F 93% 29.85 in 7.0 mi SW 8.1 mph - N/A   Overcast
8:15 AM 17.6 °F 9.3 °F 15.8 °F 93% 29.83 in 6.0 mi SW 5.8 mph - N/A   Overcast
8:35 AM 19.4 °F 10.4 °F 15.8 °F 86% 29.82 in 6.0 mi WSW 6.9 mph - N/A   Overcast
8:55 AM 17.6 °F 10.7 °F 15.8 °F 93% 29.81 in 5.0 mi SW 4.6 mph - N/A   Overcast
9:15 AM 19.4 °F - 15.8 °F 86% 29.81 in 7.0 mi Calm Calm - N/A   Overcast
9:35 AM 23.0 °F 13.9 °F 19.4 °F 86% 29.81 in 9.0 mi SW 8.1 mph - N/A   Mostly Cloudy
9:55 AM 24.8 °F 16.9 °F 19.4 °F 80% 29.80 in 10.0 mi SSW 6.9 mph - N/A   Scattered Clouds
10:15 AM 24.8 °F 16.9 °F 21.2 °F 86% 29.79 in 10.0 mi South 6.9 mph - N/A   Scattered Clouds
10:35 AM 26.6 °F 18.2 °F 21.2 °F 80% 29.78 in 10.0 mi South 8.1 mph - N/A   Scattered Clouds
10:55 AM 26.6 °F 15.2 °F 23.0 °F 86% 29.76 in 10.0 mi South 13.8 mph - N/A   Scattered Clouds
11:15 AM 26.6 °F 13.4 °F 23.0 °F 86% 29.75 in 5.0 mi SSW 18.4 mph 21.9 mph N/A   Mostly Cloudy
11:35 AM 28.4 °F 16.2 °F 24.8 °F 86% 29.74 in 10.0 mi South 17.3 mph - N/A   Mostly Cloudy
11:55 AM 28.4 °F 15.4 °F 24.8 °F 86% 29.72 in 10.0 mi SSW 19.6 mph - N/A   Mostly Cloudy
12:15 PM 30.2 °F 18.9 °F 24.8 °F 80% 29.72 in 10.0 mi SSW 16.1 mph 20.7 mph N/A   Partly Cloudy
12:35 PM 32.0 °F 21.6 °F 24.8 °F 75% 29.70 in 10.0 mi SSW 15.0 mph - N/A   Mostly Cloudy
12:55 PM 32.0 °F 21.2 °F 26.6 °F 80% 29.69 in 10.0 mi SSW 16.1 mph 20.7 mph N/A   Overcast
1:15 PM 32.0 °F 21.2 °F 26.6 °F 80% 29.67 in 10.0 mi SSW 16.1 mph 23.0 mph N/A   Mostly Cloudy
1:35 PM 32.0 °F 20.8 °F 28.4 °F 87% 29.66 in 9.0 mi SSW 17.3 mph 24.2 mph N/A   Mostly Cloudy
1:55 PM 32.0 °F 21.2 °F 28.4 °F 87% 29.65 in 9.0 mi SSW 16.1 mph - N/A   Mostly Cloudy
2:15 PM 32.0 °F 21.6 °F 28.4 °F 87% 29.64 in 10.0 mi SSW 15.0 mph 23.0 mph N/A   Mostly Cloudy
2:35 PM 33.8 °F 23.9 °F 28.4 °F 81% 29.62 in 10.0 mi SW 15.0 mph 20.7 mph N/A   Mostly Cloudy
2:55 PM 35.6 °F 26.6 °F 28.4 °F 75% 29.61 in 10.0 mi SW 13.8 mph - N/A   Partly Cloudy
3:15 PM 35.6 °F 27.5 °F 28.4 °F 75% 29.61 in 10.0 mi SW 11.5 mph - N/A   Clear
3:35 PM 35.6 °F 27.1 °F 30.2 °F 81% 29.60 in 10.0 mi SW 12.7 mph - N/A   Clear
4:15 PM 37.4 °F 28.2 °F 30.2 °F 75% 29.60 in 10.0 mi West 16.1 mph - N/A   Clear
4:35 PM 37.4 °F 28.2 °F 30.2 °F 75% 29.60 in 10.0 mi West 16.1 mph - N/A   Clear
4:55 PM 37.4 °F 28.5 °F 30.2 °F 75% 29.60 in 10.0 mi West 15.0 mph - N/A   Clear
5:15 PM 37.4 °F 29.8 °F 28.4 °F 70% 29.61 in 10.0 mi West 11.5 mph - N/A   Clear
5:35 PM 35.6 °F 27.1 °F 28.4 °F 75% 29.60 in 10.0 mi West 12.7 mph - N/A   Scattered Clouds
5:55 PM 35.6 °F 27.1 °F 28.4 °F 75% 29.60 in 10.0 mi West 12.7 mph - N/A   Mostly Cloudy
6:15 PM 32.0 °F 24.2 °F 28.4 °F 87% 29.61 in 10.0 mi WSW 9.2 mph - N/A   Partly Cloudy
6:35 PM 32.0 °F 23.6 °F 28.4 °F 87% 29.61 in 10.0 mi WSW 10.4 mph - N/A   Partly Cloudy
6:55 PM 33.8 °F 24.8 °F 28.4 °F 81% 29.61 in 10.0 mi WSW 12.7 mph - N/A   Mostly Cloudy
7:15 PM 33.8 °F 24.3 °F 28.4 °F 81% 29.61 in 10.0 mi WSW 13.8 mph - N/A   Overcast
7:35 PM 35.6 °F 27.1 °F 28.4 °F 75% 29.61 in 10.0 mi West 12.7 mph - N/A   Overcast
7:55 PM 35.6 °F 26.6 °F 28.4 °F 75% 29.61 in 10.0 mi West 13.8 mph - N/A   Overcast
8:15 PM 35.6 °F 27.5 °F 28.4 °F 75% 29.61 in 10.0 mi West 11.5 mph - N/A   Overcast
8:35 PM 35.6 °F 27.1 °F 28.4 °F 75% 29.61 in 10.0 mi West 12.7 mph - N/A   Overcast
8:55 PM 35.6 °F 27.1 °F 28.4 °F 75% 29.61 in 10.0 mi West 12.7 mph - N/A   Overcast
9:15 PM 33.8 °F 25.8 °F 28.4 °F 81% 29.62 in 10.0 mi West 10.4 mph - N/A   Overcast
9:35 PM 32.0 °F 24.8 °F 28.4 °F 87% 29.63 in 10.0 mi WSW 8.1 mph - N/A   Overcast
9:55 PM 32.0 °F 24.2 °F 28.4 °F 87% 29.64 in 10.0 mi WSW 9.2 mph - N/A   Mostly Cloudy
10:15 PM 32.0 °F 24.8 °F 28.4 °F 87% 29.65 in 10.0 mi WSW 8.1 mph - N/A   Mostly Cloudy
10:35 PM 32.0 °F 23.0 °F 28.4 °F 87% 29.65 in 10.0 mi West 11.5 mph - N/A   Mostly Cloudy
10:55 PM 33.8 °F 24.3 °F 26.6 °F 75% 29.65 in 10.0 mi West 13.8 mph - N/A   Scattered Clouds
11:15 PM 32.0 °F 23.0 °F 26.6 °F 80% 29.64 in 10.0 mi West 11.5 mph - N/A   Mostly Cloudy
11:35 PM 30.2 °F 21.9 °F 26.6 °F 86% 29.65 in 10.0 mi SW 9.2 mph - N/A   Partly Cloudy
11:55 PM 28.4 °F 19.7 °F 24.8 °F 86% 29.66 in 10.0 mi West 9.2 mph - N/A   Mostly Cloudy